Dewpoint
-11 -6 -3 -3 -4 -3 -2 -3 -5 -6 -5 -7 -9 -10 -9 -4 4 2 9 7 6 9 7 8 8 8 9 9 8 8 7 6 7 6 6 7 6 5 -0 4 5 4 4 3 4 6 7 8 9
-10 -4 -3 -4 -2 -2 -4 -3 -4 -5 -5 -6 -10 -6 -2 2 4 6 6 5 4 5 10 8 9 9 9 9 9 9 8 8 7 8 8 8 9 8 3 2 4 5 4 3 4 5 6 6 7
-4 -4 -4 -3 -1 -2 -3 -4 -4 -5 -6 -6 -9 -7 -3 -0 4 6 5 3 0 2 6 9 9 10 10 10 9 9 8 8 8 8 9 10 10 10 8 3 3 5 4 4 4 5 5 5 6
-4 -4 -4 -2 -1 -2 -3 -4 -4 -5 -5 -6 -8 -8 -2 1 3 4 3 1 -1 -1 3 8 11 11 11 10 10 10 9 9 9 8 8 9 10 11 10 7 4 4 5 5 5 5 6 6 7
-4 -4 -2 -1 -2 -3 -4 -4 -5 -4 -5 -5 -7 -5 -3 -1 1 1 2 2 1 1 5 9 11 11 11 11 10 10 9 9 9 9 7 9 10 11 11 10 8 5 4 5 6 6 7 7 7
-4 -4 -1 -0 -1 -3 -4 -5 -5 -5 -5 -5 -5 -4 -4 3 2 2 1 -1 -2 0 1 5 9 11 13 12 11 10 10 10 10 9 7 8 10 10 11 11 10 8 6 5 6 7 8 8 8
-4 -3 -1 -1 -1 -3 -4 -5 -4 -5 -5 -5 -5 -3 -4 -1 4 2 -0 -2 -3 -3 -2 -1 -0 2 7 12 13 12 11 11 11 10 8 7 9 10 11 12 12 10 9 7 7 7 8 8 9
-5 -4 -2 -3 -2 -2 -5 -5 -5 -5 -4 -5 -5 -6 -6 -4 -3 -3 -4 -3 -3 -4 -4 -4 -3 -1 3 5 9 12 12 12 12 11 10 8 9 10 10 11 12 11 10 9 8 8 8 9 9
-5 -3 -1 -2 -3 -3 -5 -4 -4 -3 -5 -4 -5 -6 -7 -7 -5 -6 -5 -4 -4 -4 -4 -4 -1 5 6 6 8 12 13 12 12 12 11 10 10 11 11 11 12 12 12 11 10 9 8 9 9
-5 -3 -3 -5 -5 -5 -4 -3 -2 -3 -3 -4 -4 -3 -3 -4 -7 -8 -8 -6 -5 -4 -5 -5 -1 5 8 10 11 11 13 13 12 12 12 10 10 11 11 11 11 12 12 12 11 10 10 10 10
-5 -3 -5 -5 -5 -1 -1 -1 -2 -3 -3 -3 -3 -3 -4 -4 -5 -5 -5 -6 -8 -6 -4 -5 -1 3 9 12 12 11 11 13 15 13 13 11 11 11 12 12 11 11 12 12 12 12 11 11 10
-2 -4 -3 -2 -1 -1 -1 -2 -2 -3 -2 -3 -3 -4 -3 -2 -2 -3 -3 -4 -5 -7 -6 -2 -1 1 8 12 13 13 12 12 13 15 13 12 11 11 12 12 12 12 12 12 12 12 11 11 11
-0 -1 -0 -1 -1 -1 -1 -2 -2 -2 -3 -4 -3 -3 -3 -4 -4 -4 -3 -3 -2 -4 -6 -2 -1 8 12 10 13 14 13 13 13 14 14 13 12 11 11 12 12 12 12 13 13 12 12 11 11
-0 -0 -1 -1 -1 -2 -1 -2 -3 -4 -3 -4 -5 -6 -7 -6 -6 -6 -5 -5 -5 -3 -5 -6 -5 4 6 11 11 13 11 12 15 13 13 13 13 13 12 12 12 12 12 12 12 12 12 12 12
-1 0 -1 -2 -3 -2 -3 -5 -3 -3 -3 -5 -6 -6 -6 -5 -5 -4 -5 -5 -5 -3 2 -2 0 3 5 9 9 12 13 13 14 14 13 13 13 13 13 13 13 13 12 11 11 11 11 11 12
-0 -1 1 -3 -3 -3 -3 -2 -4 -3 -4 -5 -5 -5 -5 -4 -4 -3 -3 -5 -0 3 10 12 14 14 11 11 12 13 13 13 12 13 13 13 12 12 13 14 13 13 13 12 12 12 11 11 11
1 1 1 -0 -4 -3 -3 -1 -2 -4 -4 -4 -4 -3 -3 -3 -3 -0 3 4 6 9 10 10 9 9 10 11 12 12 12 11 11 10 10 11 11 11 11 12 13 14 14 14 13 12 12 12 11
1 3 1 1 -3 -3 -1 -0 -2 -4 -4 -3 -3 -3 -3 -1 3 4 5 7 6 6 6 6 6 5 5 4 4 3 2 1 0 1 5 7 8 9 10 10 10 11 11 12 12 12 12 12 11
0 -0 1 -0 -1 0 1 -1 -3 -4 -3 -3 -4 -4 -2 4 5 5 5 5 4 4 4 3 2 2 1 -0 -1 -2 -3 -4 -4 -4 -3 -2 -1 0 2 6 8 9 9 10 11 11 11 12 12
2 3 3 1 -0 -1 -1 -0 -2 -3 -1 3 4 3 4 4 4 3 3 2 2 1 1 0 -1 -1 -2 -2 -3 -4 -5 -5 -4 -4 -4 -3 -2 -1 -0 0 -1 -0 3 7 9 11 13 13 13
2 3 3 3 0 -0 1 1 -1 -1 3 4 3 3 3 3 3 2 1 -0 -1 -1 -1 -1 -1 -1 -1 -2 -2 -4 -4 -4 -4 -4 -3 -2 -1 -1 -1 -0 1 1 -0 -0 2 7 9 12 11
4 1 1 1 2 3 0 4 2 2 3 3 3 3 2 1 1 0 -1 -1 -2 -1 -1 -1 -1 -3 -1 -1 -2 -5 -7 -11 -13 -14 -13 -6 -2 0 1 2 3 3 3 3 2 2 4 8 11
2 -0 1 2 3 3 3 3 1 2 3 4 3 2 1 0 -0 -1 -1 -1 -1 -1 -2 -2 -1 -0 -1 -1 -0 -2 -2 -7 -6 -6 -4 -5 -1 1 2 2 4 6 6 6 5 4 4 4 7
1 2 1 2 2 5 2 2 1 3 3 3 1 0 -0 0 0 0 0 -0 -1 -1 -1 -1 -2 -2 -2 -2 -1 -1 -1 -3 -2 -2 -2 -2 -1 1 2 3 4 5 6 7 7 7 7 6 5
1 3 5 4 4 5 1 2 3 3 2 2 1 0 0 0 0 1 1 1 1 0 -1 -1 -1 -1 -1 -2 -1 -1 -0 -0 0 -0 -1 0 1 2 2 3 3 4 5 6 6 6 6 7 8
2 2 5 6 4 2 1 3 4 2 1 1 1 -0 -0 -0 -0 0 0 1 1 1 -1 -2 -1 -2 -1 -1 -1 -1 -1 -0 -0 0 1 1 2 2 3 3 3 3 4 5 6 6 6 7 7
3 4 2 5 4 5 2 3 3 2 1 1 1 0 -0 -1 -1 -1 -1 -1 -1 -1 -1 -2 -1 -2 -2 -2 -2 -2 -2 -1 -1 -0 0 1 1 1 2 2 3 3 4 5 5 5 7 7 7
1 0 4 5 6 5 2 2 3 3 2 1 1 -0 -1 -2 -2 -2 -3 -3 -3 -3 -2 -2 -2 -2 -2 -2 -2 -2 -2 -2 -1 -1 -1 -0 0 1 1 2 2 3 4 4 4 5 6 7 7
3 3 3 3 4 4 5 3 -1 2 1 1 -0 -0 -1 -2 -3 -3 -4 -4 -4 -4 -4 -3 -3 -3 -3 -3 -3 -3 -3 -3 -2 -2 -2 -1 -1 -1 -0 0 0 1 2 3 3 4 5 7 8
2 3 3 5 4 3 1 2 1 1 1 1 1 -1 -2 -3 -4 -4 -5 -5 -5 -5 -4 -4 -4 -3 -3 -3 -3 -3 -3 -3 -3 -3 -3 -2 -2 -2 -1 -1 -0 0 1 2 2 3 5 6 7
Wind_Speed
4 2 3 3 4 5 3 4 2 5 8 7 10 4 5 4 5 4 10 10 8 9 13 20 23 24 23 22 21 19 17 15 15 15 14 13 11 9 9 11 10 10 11 12 13 13 11 10 7
3 1 2 3 4 2 4 3 5 3 12 16 6 6 1 2 3 3 12 9 7 6 10 18 22 23 22 21 20 19 18 16 15 15 15 14 12 11 9 10 10 10 11 11 11 11 11 10 8
3 2 2 4 3 4 3 1 6 13 19 9 2 2 3 4 7 13 9 8 6 5 5 10 18 22 21 21 21 19 18 17 16 16 16 15 14 13 11 9 10 11 11 11 11 11 10 9 8
1 1 5 4 4 4 2 6 4 14 21 23 14 2 1 2 5 7 7 7 4 3 3 7 13 19 20 20 20 19 18 17 17 17 17 17 17 15 14 12 11 11 11 11 11 11 11 10 10
0 3 4 2 3 3 5 5 8 6 7 12 15 10 7 3 5 4 7 4 2 1 4 6 7 12 18 20 20 20 20 19 18 18 18 19 19 18 17 15 13 12 11 12 12 12 12 11 11
3 3 4 3 3 3 6 6 5 7 11 19 8 11 5 6 1 5 5 3 2 1 2 3 6 9 11 17 21 22 22 22 20 20 20 21 21 21 19 18 16 14 14 13 13 13 13 12 12
6 4 3 2 4 2 3 10 4 6 13 8 17 4 9 11 1 1 2 3 4 5 3 3 4 6 10 14 17 22 22 22 21 21 21 22 23 23 22 21 19 17 17 16 15 14 14 14 13
5 4 3 4 3 4 1 4 11 10 9 12 15 4 9 20 5 5 7 7 8 9 9 9 9 9 8 10 14 18 24 23 22 21 22 22 23 23 24 23 22 20 20 19 18 17 16 15 15
5 4 3 5 4 4 2 7 6 11 10 15 5 9 12 20 12 15 18 17 16 15 15 15 14 12 11 11 12 15 20 26 25 23 23 23 24 25 26 26 25 23 22 21 20 19 18 17 17
4 4 8 5 4 2 8 5 13 6 17 12 17 23 25 23 16 15 17 21 24 23 21 19 17 15 13 12 12 13 17 21 26 26 25 25 26 27 27 28 27 25 24 22 22 21 20 20 20
3 6 5 4 6 7 5 11 3 3 5 11 18 30 26 24 23 27 27 24 24 27 25 23 20 18 16 14 13 13 13 18 23 27 27 26 26 27 28 29 29 29 27 26 25 25 25 25 23
3 4 2 3 6 10 8 14 5 12 18 20 17 20 21 19 17 18 21 22 24 26 27 25 23 21 19 17 16 16 15 14 19 24 26 26 27 27 27 28 29 30 30 29 28 28 27 27 26
3 3 9 15 16 18 17 9 13 16 21 9 10 16 21 24 25 27 27 26 26 23 27 29 27 24 23 23 20 18 14 12 12 18 23 23 24 24 25 27 28 29 30 31 30 30 30 30 29
1 7 12 11 24 19 6 8 2 4 8 16 24 29 30 31 32 35 35 35 33 29 23 31 31 28 27 26 24 21 18 16 14 16 19 23 23 23 24 25 27 29 30 30 30 32 31 31 31
5 5 7 7 5 5 10 5 2 4 18 27 32 33 32 33 35 35 36 35 25 17 21 25 29 30 28 27 25 23 19 16 17 19 21 25 27 26 27 27 28 29 29 27 30 33 32 32 31
4 4 4 4 6 2 5 5 6 8 28 31 34 38 38 37 35 31 31 26 14 13 20 23 24 24 27 25 22 21 19 17 18 18 20 22 24 27 31 30 33 33 34 31 33 32 33 33 27
5 2 2 8 7 4 5 2 6 24 32 24 31 34 32 29 26 22 12 6 10 17 20 20 19 18 18 21 19 16 15 15 16 17 18 20 21 23 25 32 31 25 22 24 35 35 36 36 34
4 3 3 5 6 8 13 13 7 20 22 27 30 32 25 15 9 9 4 6 10 12 13 15 15 14 13 14 15 15 15 15 17 19 21 21 21 22 23 22 22 23 26 31 29 33 36 37 31
4 3 3 4 10 7 11 13 9 18 20 23 27 23 13 4 6 6 9 8 6 5 5 5 7 7 7 10 11 12 12 13 14 15 17 19 20 22 24 27 27 26 25 24 23 26 29 32 40
6 2 6 6 7 6 10 10 9 6 9 17 22 23 11 15 13 13 13 10 9 7 5 2 1 2 2 3 5 7 9 10 9 9 12 15 17 20 22 24 27 29 30 28 26 25 22 24 22
5 5 4 7 5 5 8 5 5 5 22 24 29 30 25 18 16 15 16 17 14 13 12 11 8 4 3 1 2 4 6 7 8 10 11 11 14 17 20 22 24 26 29 29 29 28 27 27 26
3 6 6 5 1 3 3 6 4 3 12 14 20 24 25 23 20 19 18 19 18 18 15 14 14 15 16 10 8 4 4 6 8 11 15 15 13 15 16 19 21 23 25 26 27 27 30 29 30
7 4 4 4 3 2 2 2 3 6 10 12 18 20 22 23 21 21 19 20 21 21 17 16 16 9 19 20 16 13 11 10 11 12 13 16 15 15 15 15 17 18 20 21 24 26 27 30 33
5 4 3 3 3 4 8 8 4 4 3 9 13 17 17 19 20 22 24 23 23 22 19 18 17 14 12 18 19 18 17 13 14 15 15 16 17 15 15 15 14 15 16 17 19 21 24 27 32
3 5 3 3 1 5 1 2 2 3 4 8 10 10 12 12 12 14 18 21 24 25 23 21 21 22 19 18 17 17 16 15 16 17 18 19 19 17 16 16 15 15 15 16 17 20 23 23 28
6 8 5 5 3 3 2 5 2 6 8 6 7 7 8 11 12 14 14 14 14 17 19 13 12 15 19 20 19 18 16 15 16 17 17 19 20 19 18 18 17 17 16 17 18 21 24 25 26
4 6 2 1 1 1 4 1 3 8 7 6 7 5 6 5 8 10 11 12 13 13 14 15 16 16 17 16 17 18 18 17 18 17 18 18 19 19 19 19 18 17 16 16 19 21 20 23 25
6 7 3 1 3 5 4 4 5 14 12 11 10 8 3 3 6 9 11 12 13 13 12 13 13 16 16 17 18 19 19 18 17 16 16 17 19 19 18 18 18 18 18 18 18 21 20 22 23
3 3 2 3 3 4 2 5 4 17 16 14 12 10 7 2 4 8 11 11 11 12 13 13 14 14 14 16 16 17 20 19 20 20 20 20 19 19 19 20 20 19 20 18 18 19 19 21 20
3 5 6 4 4 4 3 5 4 10 12 15 12 10 7 2 3 8 11 11 11 13 12 13 14 15 15 16 16 18 17 19 21 22 22 21 20 21 21 21 21 19 20 20 22 22 21 18 17
Wind_Direction
28 68 3 38 55 65 284 277 259 312 334 312 315 224 190 139 160 205 150 143 155 165 182 194 194 193 192 191 190 187 186 187 183 178 174 169 167 163 153 159 160 165 171 177 179 178 184 187 188
49 25 39 85 83 51 277 291 310 261 293 326 334 158 148 254 163 175 156 151 132 156 188 197 199 198 198 198 197 194 191 191 194 190 186 185 180 177 166 165 167 169 174 180 186 189 192 198 202
43 18 56 89 109 183 219 269 293 315 5 341 300 23 176 164 178 158 159 154 139 126 154 197 207 207 205 206 205 203 201 200 199 202 198 193 191 188 185 178 173 175 180 185 190 195 199 205 209
357 75 62 92 211 255 217 290 331 349 2 19 342 350 40 128 144 156 174 166 155 154 166 185 201 209 213 215 214 212 209 209 210 207 205 203 199 197 195 192 188 184 187 191 197 200 204 207 212
44 67 58 12 251 265 259 294 1 359 354 347 18 328 318 289 187 185 188 179 182 206 183 178 192 210 218 222 225 225 221 218 216 215 212 209 208 206 202 202 200 196 195 199 204 208 212 213 214
78 70 68 254 249 239 279 318 351 4 346 344 16 342 346 327 322 160 190 216 261 124 188 200 208 215 222 229 232 231 230 228 224 221 218 214 212 211 210 208 207 207 206 206 208 213 216 217 217
115 88 204 239 260 296 200 19 38 338 339 352 354 38 6 349 323 213 244 279 279 285 282 265 252 240 236 241 239 237 235 232 231 228 225 221 217 215 215 214 213 214 214 214 214 216 219 220 221
120 91 127 260 277 277 257 36 349 344 321 343 357 14 341 1 259 261 256 255 254 259 268 265 247 239 243 240 244 243 238 238 235 234 231 228 224 220 219 219 219 219 220 219 220 220 222 225 224
132 71 189 229 182 247 311 4 1 338 306 323 321 340 351 336 324 315 299 287 275 267 261 255 251 239 236 238 235 240 241 239 238 236 232 230 228 224 222 222 223 223 224 224 226 225 226 227 229
110 133 218 221 198 246 324 345 328 337 316 308 319 324 328 328 324 319 306 289 278 267 269 252 244 244 235 232 237 241 246 242 243 241 236 233 231 228 226 225 225 227 228 230 231 232 232 232 231
172 189 203 255 264 338 296 307 314 275 275 297 321 320 327 324 317 313 310 301 298 283 265 255 242 238 238 232 232 243 247 247 245 243 240 237 234 232 229 228 227 228 228 230 231 233 234 235 236
291 255 261 283 307 321 306 310 296 254 272 310 315 323 324 333 332 326 320 309 303 289 266 246 239 235 235 235 234 239 246 253 244 242 242 240 240 237 236 235 234 233 234 236 237 238 241 244 244
251 317 321 308 306 302 295 263 270 263 294 312 2 354 339 329 323 317 317 312 315 297 270 242 238 229 223 231 234 235 248 250 248 235 238 242 247 248 245 245 244 242 242 241 242 245 244 246 247
346 302 302 302 298 295 264 288 349 322 23 5 350 337 325 320 319 318 316 315 313 309 281 258 244 234 241 230 237 237 246 252 236 240 242 237 241 246 248 250 251 251 250 249 250 249 250 250 250
306 328 318 280 305 296 347 344 189 60 0 341 332 327 324 323 322 320 318 319 314 292 264 246 233 230 234 235 239 238 240 240 239 241 238 240 250 252 248 248 251 255 257 256 253 254 252 251 252
4 46 350 307 334 304 51 281 303 339 343 329 324 318 318 321 322 322 322 316 287 241 212 205 199 206 222 227 232 235 234 239 243 247 252 253 249 253 258 257 257 259 256 253 253 253 252 252 248
8 268 320 322 332 325 54 251 302 316 311 307 303 306 311 320 316 323 324 262 207 186 184 183 182 187 198 215 219 226 230 237 246 251 257 260 262 260 259 255 251 248 252 256 254 250 252 248 239
185 191 262 266 300 329 303 290 286 293 297 297 298 306 314 319 338 330 314 186 163 167 172 179 184 189 193 204 214 218 232 247 256 258 260 263 263 264 267 265 263 266 267 262 257 252 248 245 238
107 158 240 265 279 300 276 290 297 287 298 304 316 321 326 85 89 98 107 114 114 129 147 167 177 192 205 212 219 222 227 240 252 261 265 267 271 270 269 268 268 266 266 268 269 262 260 257 252
224 259 270 283 272 299 292 306 272 278 1 32 16 4 104 98 96 82 74 72 66 57 57 56 100 166 205 210 215 225 242 239 242 260 273 277 276 277 277 275 271 269 267 264 263 265 267 266 261
186 197 207 247 314 292 324 316 84 69 35 28 38 52 70 78 82 67 54 44 42 36 39 29 14 36 29 153 236 215 240 264 276 278 280 278 283 285 283 282 279 274 270 268 261 256 253 255 263
253 205 210 246 303 272 24 288 95 17 29 28 50 53 51 52 53 52 49 40 34 29 22 26 27 13 0 25 3 358 303 281 288 292 294 294 294 292 292 288 285 281 277 273 268 259 252 245 244
228 174 181 154 200 349 226 273 186 57 18 26 59 55 53 54 50 41 36 27 27 24 30 30 15 19 345 4 0 357 336 338 317 307 301 297 299 297 297 297 290 287 284 281 275 267 258 249 245
127 94 73 77 126 241 213 188 303 37 14 71 64 64 66 63 51 42 33 27 19 16 21 19 21 7 359 344 352 350 344 339 327 318 316 312 307 307 302 304 304 297 291 289 286 277 271 260 247
131 122 306 320 210 232 126 178 304 110 116 130 127 114 93 76 60 43 34 27 15 9 6 4 357 360 358 346 346 349 343 344 336 334 329 325 319 320 311 307 307 302 301 293 289 287 280 279 264
180 176 207 246 210 234 324 231 237 146 134 131 113 102 86 71 63 57 49 45 30 6 351 2 355 352 347 350 347 341 347 347 342 338 333 328 327 328 324 315 310 304 303 301 298 289 281 279 275
189 203 193 258 167 268 212 223 185 170 159 169 151 143 111 71 50 25 11 17 6 360 353 359 359 357 358 353 352 352 354 351 347 342 336 329 323 322 319 317 318 314 309 302 293 294 288 278 274
167 162 102 198 242 232 244 236 221 190 190 190 182 172 110 39 18 4 357 4 357 356 353 359 3 359 357 357 360 0 2 3 358 351 344 337 333 331 327 324 324 323 318 307 302 289 285 280 274
138 199 139 155 184 225 248 250 230 189 190 190 189 156 155 139 356 353 357 360 358 353 359 5 8 9 9 11 11 11 14 12 10 9 4 0 354 347 341 341 337 334 329 319 315 311 295 283 280
181 214 172 188 217 223 168 267 151 162 181 181 172 157 151 139 9 357 354 355 1 3 10 8 11 16 16 16 20 25 25 28 28 24 20 17 15 10 5 359 356 351 342 339 331 328 321 293 285
Height
1502 1502 1502 1503 1513 1519 1522 1513 1505 1502 1498 1493 1493 1491 1487 1486 1490 1506 1492 1493 1494 1495 1497 1499 1501 1503 1505 1507 1509 1508 1508 1510 1511 1512 1514 1516 1518 1520 1521 1523 1525 1526 1528 1529 1530 1531 1533 1534 1536
1502 1502 1502 1503 1521 1527 1522 1510 1505 1499 1495 1489 1488 1490 1491 1489 1488 1490 1492 1493 1494 1496 1497 1499 1502 1504 1505 1507 1508 1510 1510 1510 1511 1513 1514 1516 1518 1520 1522 1523 1524 1525 1527 1529 1530 1531 1532 1534 1536
1503 1502 1503 1511 1527 1525 1519 1507 1504 1495 1490 1489 1487 1488 1488 1489 1488 1490 1491 1493 1494 1496 1497 1499 1501 1503 1505 1507 1508 1509 1510 1511 1512 1513 1515 1517 1518 1519 1521 1522 1524 1525 1527 1529 1530 1531 1532 1534 1535
1503 1504 1507 1516 1518 1514 1510 1506 1504 1496 1490 1491 1491 1489 1489 1489 1489 1491 1493 1494 1495 1496 1497 1498 1500 1502 1505 1506 1508 1509 1510 1511 1513 1514 1515 1516 1518 1519 1520 1522 1523 1525 1526 1528 1529 1530 1531 1532 1534
1503 1503 1516 1520 1516 1511 1506 1501 1501 1502 1500 1497 1493 1495 1492 1491 1490 1491 1493 1495 1496 1497 1498 1499 1501 1502 1503 1505 1506 1507 1508 1510 1511 1513 1514 1515 1517 1518 1520 1521 1522 1523 1525 1526 1528 1529 1530 1532 1533
1503 1506 1522 1524 1514 1509 1504 1501 1501 1502 1501 1499 1497 1495 1495 1495 1493 1494 1494 1496 1497 1498 1499 1500 1501 1502 1503 1504 1505 1505 1506 1508 1509 1511 1512 1514 1515 1516 1518 1519 1520 1522 1523 1525 1526 1528 1529 1531 1532
1504 1512 1521 1518 1513 1510 1503 1501 1502 1502 1502 1501 1500 1499 1499 1498 1497 1496 1496 1497 1498 1498 1498 1499 1499 1500 1501 1503 1503 1504 1506 1507 1508 1509 1511 1513 1514 1515 1516 1518 1519 1520 1521 1523 1524 1526 1527 1529 1531
1503 1509 1519 1519 1514 1511 1502 1502 1504 1504 1501 1502 1501 1502 1501 1499 1498 1497 1497 1496 1496 1497 1497 1496 1496 1496 1497 1499 1500 1501 1502 1504 1506 1507 1509 1511 1513 1515 1516 1517 1518 1518 1520 1521 1522 1523 1525 1527 1528
1503 1518 1523 1512 1512 1505 1502 1504 1504 1504 1502 1502 1502 1504 1503 1501 1499 1498 1496 1496 1495 1495 1495 1494 1494 1494 1495 1495 1496 1497 1498 1499 1501 1503 1505 1507 1510 1512 1513 1515 1516 1517 1518 1519 1520 1521 1522 1524 1525
1503 1518 1514 1505 1500 1501 1502 1503 1505 1505 1501 1497 1497 1500 1500 1499 1497 1496 1495 1494 1493 1492 1492 1490 1490 1490 1490 1491 1493 1493 1494 1495 1497 1499 1501 1502 1505 1507 1509 1511 1513 1515 1516 1517 1519 1519 1520 1521 1522
1504 1508 1502 1500 1500 1500 1500 1499 1501 1502 1499 1498 1497 1493 1493 1493 1491 1491 1489 1489 1488 1488 1488 1487 1486 1486 1486 1487 1488 1489 1490 1490 1491 1493 1496 1498 1500 1502 1505 1507 1509 1510 1512 1513 1515 1516 1516 1518 1519
1506 1500 1502 1500 1499 1499 1498 1498 1498 1498 1495 1497 1497 1495 1491 1487 1486 1485 1484 1483 1482 1482 1483 1483 1484 1483 1483 1484 1484 1484 1485 1486 1486 1488 1491 1493 1496 1498 1501 1502 1504 1506 1508 1509 1511 1512 1514 1515 1517
1504 1500 1499 1500 1498 1496 1495 1494 1495 1493 1493 1494 1494 1491 1488 1485 1482 1481 1480 1478 1476 1475 1477 1478 1478 1479 1479 1480 1480 1481 1482 1483 1483 1483 1486 1488 1491 1493 1496 1498 1499 1501 1504 1506 1508 1509 1509 1511 1512
1501 1501 1498 1495 1495 1492 1492 1490 1490 1490 1491 1490 1488 1485 1483 1481 1479 1476 1474 1471 1470 1470 1470 1472 1473 1475 1475 1475 1476 1477 1477 1479 1480 1481 1482 1483 1485 1487 1489 1491 1493 1495 1498 1501 1504 1504 1505 1506 1508
1500 1501 1497 1492 1492 1491 1489 1490 1490 1489 1487 1486 1484 1481 1478 1477 1475 1472 1469 1466 1464 1464 1465 1466 1469 1470 1471 1472 1473 1473 1474 1475 1478 1478 1478 1480 1482 1483 1483 1485 1487 1489 1492 1496 1497 1497 1500 1500 1501
1501 1503 1505 1492 1492 1492 1493 1501 1486 1487 1486 1484 1481 1476 1473 1472 1469 1466 1464 1461 1460 1460 1463 1464 1465 1466 1468 1468 1469 1471 1471 1472 1474 1475 1476 1477 1476 1477 1479 1480 1481 1483 1484 1486 1489 1491 1492 1493 1491
1508 1511 1508 1501 1491 1494 1496 1500 1490 1487 1485 1483 1479 1475 1473 1470 1468 1464 1463 1461 1459 1461 1461 1463 1465 1466 1467 1466 1466 1467 1468 1470 1471 1471 1471 1472 1472 1471 1471 1473 1474 1474 1475 1477 1479 1482 1484 1485 1482
1509 1510 1510 1507 1495 1493 1496 1497 1493 1487 1483 1480 1475 1472 1470 1468 1467 1466 1464 1465 1463 1464 1463 1463 1464 1464 1465 1466 1466 1464 1465 1467 1467 1467 1467 1466 1466 1465 1466 1466 1467 1467 1469 1470 1473 1472 1473 1476 1475
1504 1505 1506 1505 1498 1497 1491 1492 1491 1482 1480 1478 1473 1470 1468 1467 1468 1468 1467 1467 1467 1467 1465 1465 1463 1463 1464 1465 1465 1464 1462 1462 1463 1463 1463 1462 1462 1461 1461 1461 1460 1460 1460 1464 1465 1465 1466 1467 1468
1503 1506 1508 1502 1495 1495 1488 1489 1484 1481 1486 1484 1477 1468 1469 1471 1471 1471 1470 1469 1468 1468 1466 1465 1464 1463 1464 1464 1463 1461 1460 1459 1458 1458 1457 1458 1457 1456 1456 1455 1454 1454 1454 1456 1458 1458 1459 1460 1462
1501 1505 1503 1503 1496 1494 1491 1486 1483 1483 1481 1480 1479 1478 1475 1476 1474 1473 1473 1473 1472 1470 1467 1466 1465 1461 1462 1461 1462 1458 1458 1455 1454 1453 1452 1452 1452 1451 1449 1448 1448 1447 1446 1448 1451 1451 1453 1455 1457
1500 1494 1498 1499 1502 1509 1496 1500 1483 1487 1487 1483 1485 1483 1484 1483 1481 1478 1476 1476 1474 1474 1472 1469 1467 1460 1467 1458 1462 1457 1456 1452 1449 1447 1447 1447 1446 1446 1443 1441 1440 1440 1439 1439 1441 1443 1445 1447 1450
1492 1489 1493 1498 1504 1506 1502 1509 1485 1488 1490 1488 1490 1489 1486 1485 1484 1483 1481 1481 1479 1477 1473 1469 1469 1466 1468 1461 1461 1455 1456 1446 1445 1444 1443 1442 1441 1440 1438 1436 1434 1434 1432 1431 1432 1433 1435 1437 1440
1487 1491 1495 1503 1509 1507 1493 1496 1487 1490 1495 1494 1495 1493 1490 1487 1486 1486 1485 1483 1481 1481 1475 1471 1470 1471 1464 1461 1461 1457 1452 1445 1444 1441 1437 1435 1435 1434 1433 1431 1430 1428 1427 1425 1425 1425 1426 1427 1429
1486 1491 1505 1509 1507 1498 1489 1496 1488 1494 1494 1494 1494 1492 1489 1486 1485 1485 1484 1483 1483 1480 1477 1470 1469 1466 1465 1464 1462 1458 1455 1445 1443 1436 1432 1431 1430 1428 1426 1426 1425 1423 1421 1420 1420 1419 1418 1418 1419
1489 1488 1490 1493 1503 1495 1490 1495 1480 1493 1495 1496 1496 1494 1491 1489 1487 1486 1484 1480 1479 1479 1478 1473 1470 1465 1465 1459 1461 1460 1451 1445 1440 1435 1432 1430 1427 1423 1421 1420 1419 1417 1414 1414 1412 1411 1410 1410 1409
1487 1485 1484 1492 1497 1496 1488 1488 1490 1489 1492 1493 1493 1492 1489 1489 1487 1487 1487 1481 1480 1476 1473 1470 1466 1464 1463 1465 1462 1457 1449 1443 1436 1433 1430 1427 1425 1421 1419 1417 1413 1410 1408 1407 1405 1404 1403 1402 1400
1475 1478 1492 1496 1487 1484 1480 1479 1479 1482 1485 1488 1488 1487 1489 1490 1489 1488 1488 1482 1481 1477 1475 1469 1465 1464 1465 1462 1458 1453 1447 1440 1436 1433 1429 1427 1422 1418 1415 1412 1408 1405 1402 1401 1398 1396 1395 1393 1393
1477 1479 1478 1482 1487 1484 1479 1476 1468 1470 1476 1480 1482 1482 1486 1488 1489 1488 1485 1482 1479 1478 1473 1468 1465 1464 1463 1460 1456 1451 1444 1440 1437 1432 1428 1424 1420 1418 1415 1408 1403 1400 1397 1392 1392 1390 1387 1385 1384
1462 1466 1469 1477 1484 1483 1492 1477 1464 1467 1473 1479 1482 1483 1486 1487 1488 1487 1485 1481 1478 1475 1472 1471 1467 1463 1462 1460 1455 1449 1446 1441 1436 1433 1429 1425 1421 1417 1411 1406 1400 1397 1393 1389 1386 1383 1380 1379 1377